Location: Ch?enovice
(49.7164°N, 15.2160°E)
Time: 21:17:04
(UTC+00:00)

SJ 16-02 - Pass Details

Date: 23 May 2024
Orbit: 594 x 606 km, 75.0° (Epoch: 21 June)

Event Time Altitude Azimuth Distance (km) Brightness Sun altitude
Exits shadow 00:03:51 - 127° (SE) 2,248 4.0 -18.1°
Reaches altitude 10° 00:05:47 10° 105° (ESE) 1,931 3.9 -18.0°
Maximum altitude 00:06:44 11° 92° (E) 1,890 4.0 -17.9°
Drops below altitude 10° 00:07:41 10° 79° (E) 1,934 4.3 -17.9°
Sets 00:11:44 0° 42° (NE) 2,844 6.0 -17.7°
